sat.trackr.live / text

‹ back to catalog

STARLINK-2083

NORAD 47676 · 2021-012BJ

PAYLOAD ACTIVE UNKNOWN

§ Identity

Operator
Country
US
Launch date
2021-02-16
Launch site
AFETR
Launch vehicle
Mass (kg)
RCS (m²)

Purposes: comms

External: N2YO · Heavens-Above · Gunter

§ Orbital elements

Epoch: 2026-05-25T05:17:49.475328Z

Period
91.45 min
Inclination
53.0436°
Eccentricity
0.0005332
Mean motion
15.74636825 rev/d
Perigee alt
342.1 km
Apogee alt
349.2 km
Semi-major
6,723.8 km
B*
8.2758e-4
RAAN
265.2967°
Arg perigee
321.7774°
Mean anomaly
38.2865°
Rev number
29,406

§ Raw data

STARLINK-20831 47676U 21012BJ  26145.22071152  .00124881  00000+0  82758-3 0  99902 47676  53.0436 265.2967 0005332 321.7774  38.2865 15.74636825294064

JSON: /api/v1/satellites/47676 · /tle

For live sub-satellite position, see the globe view (requires WebGL).

§ Visibility from observer

Set your observer location to see the next 7 days of passes ≥ 10°. The values pass through the URL so the page stays shareable.

No JS? Fill the form by hand. The geolocation button needs JavaScript.